Weather Roundup
Issued by NWS

Home | Current Version | Previous Version | Graphics & Text | Print | Product List | Glossary Off
Versions: 1 2 3 4 5 6 7 8 9 10 11 12 13 14 15 16 17 18 19 20 21 22 23 24 25 26 27 28 29 30 31 32 33 34 35 36 37 38 39 40 41 42 43 44 45 46 47 48 49 50

000
NZUS93 KARX 051510
HRRWXR

CURRENT HOURLY OBSERVATIONS ACROSS
MUCH OF THE UPPER MISSISSIPPI VALLEY
NATIONAL WEATHER SERVICE LA CROSSE WI
1000 AM CDT SUN JUL 05 2015


...SOUTHEAST MINNESOTA...


CITY           SKY/WX    TMP DP  RH WIND       PRES   REMARKS
ROCHESTER      PTSUNNY   75  64  68 S13       30.01S
ROCHESTER/MAYO FAIR      73  63  70 S10G16    30.00F
WINONA         SUNNY     77  63  61 S5        29.99F
AUSTIN         PTSUNNY   73  64  73 S10       29.99F
ALBERT LEA     PTSUNNY   73  63  68 S12G17    29.97F
DODGE CENTER   PTSUNNY   72  64  78 S10       29.99S
PRESTON        MOSUNNY   73  63  71 S13       30.02F
OWATONNA       PTSUNNY   73  63  68 S10       29.96F
FARIBAULT      PTSUNNY   73  64  73 S12G17    29.95F
$$

...ELSEWHERE IN MINNESOTA...


CITY           SKY/WX    TMP DP  RH WIND       PRES   REMARKS
MINNEAPOLIS    CLOUDY    75  61  61 S10       29.91F
INTNL FALLS    MOSUNNY   74  67  78 S6        29.80F HAZE
DULUTH         PTSUNNY   71  61  70 SW12      29.90F
RED WING       PTSUNNY   75  63  64 S6        29.94F
REDWOOD FALLS  CLOUDY    75  63  66 S17G28    29.83F
MANKATO        PTSUNNY   73  63  68 S10       29.92F
WORTHINGTON    CLOUDY    66  61  82 S18G24    29.87F
FAIRMONT       CLOUDY    72  61  68 S16G22    29.92F
$$

...SOUTHWEST WISCONSIN...


CITY           SKY/WX    TMP DP  RH WIND       PRES   REMARKS
LA CROSSE      SUNNY     75  63  66 S8        30.01S
PRAIRIE DU CHI SUNNY     74  64  68 S6        30.03F
BOSCOBEL       SUNNY     76  65  68 CALM      30.03F
LONE ROCK      SUNNY     76  64  66 S7        30.05F
PLATTEVILLE    SUNNY     74  67  76 S9        30.07S
FORT MC COY    SUNNY     76  60  57 S9        30.03S
CAMP DOUGLAS   MOSUNNY   75  72  88 S8        30.03F
VIROQUA        FAIR      74  63  68 S8        30.05S
WIS DELLS      SUNNY     74  61  63 SW9       30.06S
$$

...ELSEWHERE IN WISCONSIN...


CITY           SKY/WX    TMP DP  RH WIND       PRES   REMARKS
MILWAUKEE      MOSUNNY   77  59  53 VRB6      30.07F
MADISON        MOSUNNY   76  61  59 SW8       30.05F
GREEN BAY      SUNNY     77  64  64 SW8       30.04F
EAU CLAIRE     MOSUNNY   76  62  62 S12       29.98F
BLACK RVR FLS  FAIR      77  62  60 SW7       30.02R
MEDFORD        SUNNY     72  62  71 S13       30.03S
WAUSAU         SUNNY     75  62  64 SW8       30.02S
WIS RAPIDS     SUNNY     74  61  63 S7        30.05S
MARSHFIELD     SUNNY     74  61  63 SW10      30.03F
RICE LAKE      MOSUNNY   74  61  63 S12       29.98F
$$

...NORTHEAST IOWA...


CITY           SKY/WX    TMP DP  RH WIND       PRES   REMARKS
DECORAH          N/A    N/A N/A N/A MISG        N/A
MASON CITY     PTSUNNY   76  66  71 S10       30.01S
CHARLES CITY   PTSUNNY   73  68  83 S9        30.03R
OELWEIN        MOSUNNY   75  66  73 S10       30.03F
$$

...ELSEWHERE IN IOWA...


CITY           SKY/WX    TMP DP  RH WIND       PRES   REMARKS
DES MOINES     CLOUDY    75  66  73 S7        30.00R
IOWA CITY      SUNNY     74  67  78 S6        30.04F
FORT DODGE     CLOUDY    73  64  73 S10       29.99F
$$

...NORTHERN ILLINOIS...


CITY           SKY/WX    TMP DP  RH WIND       PRES   REMARKS
CHICAGO-OHARE  SUNNY     77  60  55 SW6       30.08S
CHICAGO-MIDWAY SUNNY     79  62  56 SW5       30.08F
MOLINE         SUNNY     76  64  66 SW7       30.06S
ROCKFORD       SUNNY     76  64  66 S6        30.09F
PEORIA         SUNNY     77  63  61 S8        30.08F
$$

NOTE: "FAIR" INDICATES FEW OR NO CLOUDS BELOW 12,000 FEET WITH NO
SIGNIFICANT WEATHER AND/OR OBSTRUCTIONS TO VISIBILITY. WIND
SPEEDS ARE IN MILES-PER-HOUR.



USA.gov is the U.S. government's official web portal to all federal, state and local government web resources and services.